GSAT0204

Last updated on Sun May 29 2016 17:39:59 GMT+0000 (Coordinated Universal Time)

1 40545U 15017B 16149.56705633 -.00000013 00000-0 00000-0 0 9993 2 40545 55.3350 82.8616 0000571 233.5015 126.4758 1.70475220 7271

Satellite not in orbit

GSAT0204